{"data":{"norad_id":69830,"epoch":"2026-09-19T16:38:23.451936Z","epoch_age_seconds":87452,"freshness":"FRESH","line1":"1 69830U 26154M   26262.69332699  .00014616  00000+0  44266-3 0  9991","line2":"2 69830  53.1580 335.5485 0001179  91.7684 268.3454 15.34414261 13115","mean_motion":15.34414261,"eccentricity":0.0001179,"inclination_deg":53.158,"raan_deg":335.5485,"arg_perigee_deg":91.7684,"mean_anomaly_deg":268.3454,"bstar":0.00044266,"rev_number":1311,"period_min":93.846885850861,"perigee_km":461.85432377106,"apogee_km":463.46738390499,"semimajor_km":6840.797853838,"source":"CELESTRAK","updated_at":"2026-09-20T09:00:44.294881Z"}}